Temp
63 63 63 63 61 61 61 62 62 61 61 61 61 62 62 61 59 60 56 61 63 66 64 62 61 60 61 60 60 61 53 51 55 54 58 57 58 56 57 56 55 52 51 52 55
64 63 63 62 61 62 61 61 61 61 61 61 61 61 61 60 57 55 62 65 65 65 60 58 57 58 57 57 58 57 52 54 61 61 60 58 58 57 56 54 52 49 48 52 50
63 63 63 63 62 62 61 61 61 60 61 61 60 60 60 60 54 54 63 64 64 62 61 59 59 58 54 56 56 56 51 60 55 56 56 56 55 58 56 52 59 53 47 47 48
62 62 62 61 61 60 60 60 61 60 61 60 60 60 59 57 46 58 63 62 62 61 59 56 56 53 52 50 57 49 54 54 52 51 52 52 55 53 56 58 54 57 51 48 47
62 61 61 61 61 60 60 59 60 60 60 60 59 59 57 52 53 60 60 59 60 59 56 55 53 54 50 52 52 50 52 51 50 49 50 49 52 54 53 52 52 54 51 48 48
61 60 60 60 60 59 59 59 60 59 59 59 59 58 54 48 59 60 58 58 58 58 54 55 54 55 52 50 51 50 50 50 49 49 49 47 50 50 52 50 49 49 49 50 49
60 60 59 59 59 60 59 59 59 59 59 59 59 58 52 51 60 61 58 57 57 57 53 54 55 52 53 47 49 48 46 47 49 49 48 47 47 47 49 49 48 48 48 48 49
60 59 59 59 59 59 58 58 58 58 59 59 59 57 50 58 62 58 59 56 58 58 56 56 55 52 50 50 47 45 45 42 45 46 47 46 47 46 45 47 48 48 47 46 46
59 58 58 58 58 58 58 58 58 59 59 60 56 53 48 59 54 57 58 54 55 56 56 57 54 48 47 44 42 42 41 40 42 43 43 45 47 43 43 42 47 47 47 46 45
58 58 58 58 57 57 56 58 58 59 58 59 57 49 52 49 53 54 57 55 52 52 50 50 49 45 44 42 33 38 38 39 42 40 40 42 41 47 44 43 43 46 46 45 45
57 57 57 57 57 56 56 58 54 51 53 46 47 47 49 54 54 52 53 52 52 49 43 44 42 39 38 40 33 34 33 35 39 38 38 43 43 46 48 45 45 44 45 45 45
57 57 57 57 56 54 54 48 43 44 44 49 49 49 51 51 47 50 55 47 46 42 42 41 37 37 38 37 36 35 34 37 37 37 37 37 36 44 45 42 39 42 43 44 45
56 57 57 56 53 53 48 44 48 47 46 45 48 48 48 51 44 45 50 46 43 39 38 37 35 37 36 35 33 32 31 33 33 35 35 35 39 38 37 36 38 38 39 42 43
56 57 56 55 55 49 45 47 48 48 41 39 44 47 49 48 42 49 49 45 41 37 36 35 37 34 34 31 32 29 32 30 29 30 29 28 31 34 33 33 33 35 36 37 40
55 56 54 53 52 48 46 48 48 47 25 41 43 54 49 44 44 44 48 46 37 35 37 29 31 32 30 27 31 28 32 30 26 27 25 28 28 30 34 30 28 30 32 33 36
55 55 53 52 51 46 47 47 47 35 22 35 41 39 41 42 41 44 43 46 42 37 36 31 34 31 28 31 31 32 30 28 27 25 20 27 25 24 24 22 26 28 30 31 31
54 53 52 51 46 48 47 47 35 26 38 31 32 37 35 34 36 37 32 28 26 25 26 30 26 29 29 28 31 27 25 21 18 17 21 19 21 19 24 26 27 25 27 28 30
53 50 48 49 47 46 47 44 25 29 29 36 35 35 29 32 33 33 29 26 30 26 25 21 20 23 25 24 23 20 22 22 15 18 21 19 19 20 25 29 31 30 29 30 29
51 52 54 52 47 47 48 28 23 27 31 30 33 28 27 31 30 29 25 23 26 28 20 21 20 24 24 24 24 21 23 21 18 13 19 21 20 23 27 28 28 28 30 28 30
51 51 51 51 46 50 41 27 28 32 32 32 24 28 23 25 26 26 23 26 25 30 30 22 18 22 25 24 25 23 23 20 21 14 13 14 14 17 18 21 25 25 26 28 30
50 49 52 50 51 44 29 27 30 34 33 29 26 24 24 23 24 21 21 25 28 27 30 26 20 21 24 18 17 23 21 19 20 20 15 16 13 20 19 21 22 24 26 28 30
47 42 51 51 39 36 29 30 33 31 34 31 30 28 25 24 22 21 18 23 30 28 22 27 21 18 16 15 15 18 19 20 17 14 18 16 12 22 22 22 23 23 25 28 31
42 41 50 50 31 30 31 29 30 29 29 28 26 28 28 22 18 23 23 29 30 28 23 27 19 14 13 17 20 19 20 18 18 19 15 13 11 22 22 22 23 23 24 26 29
42 38 40 39 35 30 26 25 24 31 28 29 27 28 24 22 24 19 21 25 29 28 30 28 20 16 13 14 19 14 16 16 17 16 13 14 13 16 19 20 23 24 26 27 29
37 28 30 29 31 30 28 26 23 22 29 30 25 24 19 16 20 19 23 24 27 27 26 23 14 18 17 19 19 16 15 15 12 12 12 12 12 15 18 19 22 25 26 27 27
35 32 34 32 30 29 26 23 22 24 24 22 20 23 23 16 16 13 19 21 19 25 22 23 16 18 14 19 20 15 18 19 16 14 14 14 14 20 22 24 24 24 25 25 27
39 37 33 30 28 27 25 24 24 26 26 28 25 22 21 22 25 26 27 25 22 19 19 16 16 15 11 15 16 11 13 15 15 16 14 13 16 22 21 22 22 23 23 23 26
MSLP
1018.39 1017.92 1017.63 1017.14 1016.86 1016.45 1015.95 1015.52 1015.30 1015.06 1014.75 1014.63 1014.50 1014.39 1014.32 1014.30 1014.15 1013.75 1013.24 1013.33 1013.22 1013.21 1013.34 1013.53 1013.55 1013.48 1013.40 1012.74 1012.45 1011.88 1010.08 1007.64 1007.52 1008.12 1008.11 1009.49 1009.99 1010.87 1011.45 1011.88 1013.03 1014.22 1014.45 1015.41 1016.39
1018.20 1017.80 1017.33 1017.03 1016.63 1016.10 1015.75 1015.36 1015.07 1014.78 1014.57 1014.31 1014.11 1013.99 1014.05 1014.09 1013.91 1013.48 1013.40 1013.15 1013.09 1013.25 1013.26 1013.16 1012.95 1013.02 1012.57 1012.27 1012.11 1011.23 1009.51 1008.47 1008.64 1008.94 1008.84 1009.74 1010.26 1011.06 1011.63 1012.04 1012.96 1014.26 1015.29 1016.03 1016.96
1018.05 1017.61 1017.12 1016.73 1016.22 1015.80 1015.44 1015.14 1014.76 1014.58 1014.28 1014.06 1013.93 1013.78 1013.78 1013.88 1013.48 1013.22 1013.39 1013.19 1013.14 1013.33 1013.27 1013.29 1013.10 1012.79 1012.28 1012.07 1011.51 1010.71 1009.41 1009.41 1010.05 1010.25 1010.48 1010.40 1010.88 1011.40 1011.52 1011.82 1011.71 1012.83 1014.73 1016.01 1016.86
1018.02 1017.49 1017.01 1016.58 1016.12 1015.71 1015.33 1014.99 1014.57 1014.35 1014.13 1013.93 1013.85 1013.82 1013.71 1013.65 1013.33 1013.13 1013.30 1013.28 1013.18 1013.33 1013.25 1013.12 1012.99 1012.57 1011.84 1011.56 1011.21 1011.14 1010.58 1010.79 1011.23 1011.38 1011.63 1011.34 1011.46 1011.48 1011.61 1011.85 1012.58 1012.86 1014.36 1015.58 1016.33
1017.86 1017.30 1016.77 1016.21 1015.68 1015.37 1015.01 1014.65 1014.28 1014.11 1013.97 1013.81 1013.73 1013.77 1013.80 1013.37 1012.94 1013.35 1013.33 1013.38 1013.27 1013.25 1012.98 1012.78 1012.50 1012.01 1011.47 1011.34 1011.50 1011.26 1011.30 1011.58 1011.84 1012.08 1012.17 1012.25 1011.86 1011.73 1011.82 1012.59 1013.05 1013.53 1014.56 1015.42 1016.41
1017.66 1017.05 1016.43 1015.84 1015.32 1014.99 1014.62 1014.26 1013.94 1013.89 1013.84 1013.67 1013.70 1013.73 1013.51 1013.11 1013.36 1013.48 1013.40 1013.30 1013.19 1013.04 1012.93 1012.81 1012.33 1012.22 1011.77 1011.61 1011.47 1011.54 1011.73 1011.82 1012.27 1012.44 1012.63 1012.57 1012.29 1012.46 1012.37 1013.14 1013.57 1014.22 1014.71 1015.46 1016.31
1017.39 1016.77 1016.10 1015.48 1014.91 1014.45 1014.12 1013.88 1013.68 1013.65 1013.67 1013.62 1013.68 1013.69 1013.42 1013.35 1013.33 1013.40 1013.42 1013.26 1013.30 1013.06 1012.82 1012.94 1012.79 1012.57 1012.14 1012.10 1012.34 1012.08 1011.93 1012.14 1012.21 1012.59 1012.79 1013.07 1012.46 1011.97 1012.83 1013.39 1013.96 1014.47 1015.21 1015.83 1016.45
1017.18 1016.53 1015.90 1015.31 1014.75 1014.30 1013.94 1013.65 1013.49 1013.46 1013.48 1013.57 1013.68 1013.64 1013.06 1013.45 1013.45 1013.38 1013.28 1013.31 1013.31 1013.24 1013.04 1013.11 1013.02 1012.81 1012.62 1012.91 1012.60 1012.26 1012.28 1011.83 1012.32 1012.70 1012.86 1013.15 1011.00 1012.48 1013.38 1013.58 1013.96 1014.68 1015.51 1016.18 1016.71
1017.05 1016.36 1015.75 1015.19 1014.64 1014.15 1013.71 1013.38 1013.14 1013.27 1013.50 1013.61 1013.81 1013.53 1013.23 1013.47 1013.50 1013.49 1013.35 1013.15 1013.19 1013.24 1013.26 1013.29 1013.14 1013.12 1013.26 1012.79 1012.54 1012.46 1011.30 1011.75 1012.37 1013.17 1013.19 1013.11 1011.75 1012.87 1013.72 1014.14 1014.22 1014.98 1015.54 1016.17 1016.93
1016.84 1016.25 1015.61 1015.01 1014.54 1014.04 1013.75 1013.46 1013.36 1013.43 1013.75 1013.76 1013.69 1013.81 1013.47 1013.58 1013.59 1013.60 1013.52 1013.41 1013.10 1013.09 1013.18 1013.10 1013.00 1012.94 1013.04 1012.73 1012.24 1011.83 1012.13 1012.32 1012.25 1013.50 1013.47 1013.06 1012.49 1012.85 1013.82 1014.23 1014.58 1015.19 1015.69 1016.23 1016.98
1016.80 1016.16 1015.51 1014.96 1014.47 1014.12 1013.68 1013.54 1013.90 1014.02 1013.74 1013.95 1013.95 1013.61 1013.59 1013.73 1013.84 1013.65 1013.71 1013.36 1013.13 1012.99 1012.72 1013.12 1012.90 1012.57 1013.00 1013.42 1013.68 1013.43 1013.24 1012.97 1013.27 1014.03 1013.95 1012.96 1012.70 1012.86 1013.46 1014.36 1014.72 1015.10 1015.63 1016.29 1016.85
1016.70 1016.02 1015.42 1014.99 1014.70 1014.33 1014.23 1014.61 1015.80 1016.27 1014.99 1014.21 1013.96 1013.91 1013.94 1014.04 1013.68 1013.65 1013.74 1013.44 1013.07 1012.80 1013.22 1013.44 1013.17 1013.97 1014.22 1014.37 1014.36 1014.24 1013.99 1013.68 1014.31 1014.64 1014.63 1013.79 1013.47 1013.28 1013.99 1014.86 1015.75 1015.94 1016.06 1016.39 1016.90
1016.57 1015.84 1015.25 1014.93 1014.80 1014.83 1015.45 1016.35 1016.55 1016.38 1015.13 1014.55 1014.18 1014.05 1014.25 1014.14 1014.05 1014.10 1013.89 1013.71 1013.39 1013.39 1013.66 1013.76 1014.75 1015.08 1015.01 1015.11 1015.13 1015.12 1014.89 1014.81 1014.89 1015.19 1015.19 1014.63 1013.36 1013.95 1015.34 1016.17 1016.53 1017.05 1017.31 1017.27 1017.27
1016.50 1015.78 1015.16 1014.62 1014.95 1015.85 1016.23 1016.86 1016.74 1016.47 1015.01 1014.96 1014.29 1014.48 1014.37 1014.26 1014.43 1014.71 1014.66 1014.46 1014.12 1014.16 1014.61 1015.14 1015.79 1015.87 1015.98 1016.12 1016.33 1015.99 1016.26 1016.13 1015.99 1015.68 1015.18 1015.67 1013.95 1014.75 1015.98 1016.72 1017.50 1018.07 1018.23 1018.35 1018.15
1016.58 1016.09 1015.65 1014.91 1015.63 1016.12 1016.88 1016.79 1016.63 1016.38 1015.46 1015.58 1014.80 1014.74 1014.55 1014.61 1015.05 1015.09 1015.30 1014.60 1014.69 1015.10 1015.48 1016.62 1016.77 1016.90 1017.05 1017.58 1017.43 1017.19 1017.16 1016.93 1016.94 1016.50 1016.30 1015.94 1015.90 1015.99 1016.68 1017.65 1018.74 1019.25 1019.35 1019.33 1019.20
1016.64 1016.30 1015.91 1015.76 1016.04 1016.89 1016.78 1016.58 1016.32 1015.95 1015.94 1015.80 1015.55 1015.45 1014.97 1015.25 1015.50 1015.54 1015.64 1015.65 1016.00 1015.85 1016.36 1017.52 1018.34 1018.62 1018.85 1018.72 1018.40 1018.26 1017.83 1017.72 1017.62 1017.22 1016.61 1016.23 1016.84 1017.55 1018.96 1020.36 1020.29 1020.44 1020.29 1020.01 1019.77
1016.61 1016.44 1016.14 1016.48 1016.73 1016.75 1016.66 1016.16 1016.05 1016.16 1017.32 1017.31 1016.86 1016.65 1016.41 1016.47 1016.47 1016.71 1017.38 1017.80 1017.96 1017.50 1017.49 1018.21 1019.13 1019.78 1019.98 1019.42 1019.23 1018.96 1018.35 1017.65 1017.58 1017.17 1016.46 1017.77 1018.36 1019.73 1020.81 1021.45 1021.64 1021.48 1021.09 1020.60 1020.07
1016.55 1016.47 1016.72 1016.93 1016.83 1016.62 1016.13 1015.69 1016.55 1018.46 1018.56 1018.58 1018.09 1017.62 1017.59 1017.89 1017.78 1018.10 1018.43 1019.07 1019.69 1019.56 1019.10 1019.24 1020.04 1020.78 1021.02 1020.84 1020.27 1019.90 1019.42 1018.22 1017.22 1016.80 1017.14 1018.54 1018.89 1020.78 1021.92 1022.25 1022.19 1022.01 1021.53 1021.03 1020.61
1016.26 1016.35 1016.21 1016.34 1016.44 1016.24 1015.46 1016.59 1019.52 1020.13 1020.26 1019.66 1018.90 1018.51 1018.76 1018.99 1019.11 1019.27 1020.29 1020.92 1021.16 1020.96 1020.73 1020.46 1020.67 1021.67 1021.95 1021.84 1021.78 1021.03 1020.32 1020.39 1019.03 1018.73 1018.28 1018.48 1020.44 1022.00 1022.33 1022.38 1022.39 1022.19 1021.66 1021.31 1020.89
1016.54 1016.42 1016.42 1016.58 1016.46 1015.84 1016.05 1019.04 1020.68 1021.46 1021.29 1020.60 1020.10 1020.27 1019.95 1020.10 1020.01 1020.26 1021.32 1022.23 1022.03 1021.83 1021.94 1021.61 1021.36 1021.75 1022.13 1022.47 1022.33 1021.70 1021.58 1020.85 1019.70 1018.70 1018.30 1019.41 1020.79 1021.82 1023.15 1023.43 1023.33 1023.00 1022.72 1022.15 1021.53
1016.63 1016.43 1016.94 1016.75 1016.19 1016.58 1018.64 1020.76 1021.57 1022.09 1022.01 1021.64 1021.42 1021.38 1021.44 1021.47 1021.47 1021.79 1022.49 1022.96 1022.91 1022.41 1022.14 1021.86 1022.10 1022.00 1022.34 1023.16 1023.27 1022.57 1021.80 1021.40 1020.82 1019.87 1019.12 1019.65 1022.10 1023.95 1024.44 1024.65 1024.38 1024.03 1023.55 1022.98 1022.32
1017.41 1017.74 1018.23 1016.93 1017.58 1019.55 1021.00 1022.06 1022.85 1022.74 1022.67 1022.56 1022.56 1022.49 1022.52 1022.65 1022.54 1022.77 1023.06 1023.39 1023.46 1023.04 1022.38 1022.33 1022.29 1022.22 1023.47 1024.44 1024.59 1023.84 1022.96 1022.29 1021.38 1020.84 1020.81 1021.32 1023.47 1025.06 1025.40 1025.43 1025.16 1024.69 1024.17 1023.42 1022.72
1019.06 1019.39 1019.13 1017.93 1019.68 1021.19 1022.55 1023.17 1023.73 1023.53 1023.56 1023.41 1023.54 1023.73 1023.75 1023.69 1023.65 1023.55 1023.69 1024.02 1023.81 1023.28 1022.96 1022.72 1022.81 1022.66 1023.70 1024.52 1024.45 1023.90 1023.77 1023.42 1022.79 1022.31 1021.82 1022.57 1024.33 1025.68 1026.00 1025.93 1025.71 1025.26 1024.77 1024.06 1023.36
1020.29 1020.45 1020.80 1021.10 1022.49 1022.64 1023.26 1023.95 1024.17 1024.48 1024.49 1024.47 1024.54 1024.48 1024.49 1024.44 1024.50 1024.43 1024.32 1024.33 1024.28 1023.89 1023.54 1023.38 1023.49 1023.44 1023.46 1023.87 1024.12 1024.32 1024.52 1024.09 1023.57 1023.12 1023.46 1023.79 1024.93 1026.01 1026.39 1026.35 1025.91 1025.57 1025.15 1024.43 1023.82
1021.76 1023.29 1023.71 1023.05 1023.13 1023.68 1024.08 1024.67 1024.72 1024.81 1024.97 1025.02 1024.99 1025.25 1025.51 1025.37 1025.14 1025.06 1024.95 1024.66 1024.56 1024.64 1024.32 1024.31 1024.42 1024.26 1024.13 1024.33 1024.39 1024.90 1024.98 1024.89 1024.78 1024.97 1024.68 1025.12 1025.58 1026.36 1026.62 1026.62 1026.44 1026.11 1025.55 1024.96 1024.56
1023.34 1024.08 1024.22 1024.11 1024.27 1024.30 1024.67 1025.26 1025.35 1025.33 1025.43 1025.49 1025.60 1025.81 1025.95 1026.09 1026.37 1026.13 1025.94 1025.66 1025.69 1025.19 1025.16 1025.32 1025.12 1024.97 1025.05 1025.01 1024.92 1025.01 1025.25 1025.27 1025.38 1025.57 1025.58 1025.72 1025.94 1026.57 1026.65 1026.42 1026.14 1025.82 1025.44 1025.03 1024.72
1024.72 1025.11 1024.95 1024.73 1024.62 1024.73 1025.30 1025.56 1025.71 1025.78 1025.89 1025.92 1026.06 1026.15 1026.33 1026.62 1026.66 1026.52 1026.43 1026.50 1026.54 1026.51 1026.20 1026.14 1025.84 1025.54 1025.19 1025.51 1025.27 1025.28 1025.58 1025.58 1025.72 1025.80 1025.99 1025.77 1026.12 1026.25 1026.07 1025.96 1025.84 1025.31 1025.13 1024.91 1024.67
Wind_Speed
17 16 17 17 16 16 15 14 12 11 10 9 9 7 6 6 5 3 4 3 2 5 2 3 4 6 7 7 4 2 10 16 21 17 9 6 11 3 2 6 3 2 2 2 21
18 17 17 17 16 16 15 15 13 11 10 9 7 6 4 4 4 4 3 2 2 2 3 6 7 9 6 7 7 11 13 17 6 10 7 9 9 8 7 9 7 5 6 14 19
19 19 18 18 17 16 16 16 13 12 10 8 6 4 1 2 4 3 1 3 3 2 3 2 4 7 8 5 8 8 14 11 4 3 3 5 7 7 6 9 10 12 16 18 19
19 19 19 19 18 18 17 16 15 12 11 8 6 3 0 3 3 4 2 4 2 3 7 5 7 7 7 9 10 9 7 5 1 1 2 4 4 6 11 1 4 1 18 20 21
21 21 21 21 20 18 17 15 14 11 10 7 4 3 3 3 2 2 3 3 3 6 6 7 9 7 9 7 7 12 6 3 1 1 2 2 6 5 8 2 3 9 16 18 17
22 22 22 22 20 17 16 15 12 9 9 5 3 4 3 4 3 1 3 3 3 4 5 6 5 4 3 3 9 2 4 2 2 2 1 4 3 3 4 5 7 11 14 15 17
23 23 22 21 19 17 15 13 11 8 7 3 4 2 2 3 1 1 3 2 1 2 4 2 2 4 4 3 2 4 4 2 5 2 2 2 10 9 4 7 7 9 10 13 14
24 24 22 20 18 17 16 14 11 8 4 4 5 2 1 1 0 1 2 3 1 2 3 4 3 4 1 5 3 4 3 7 4 3 3 4 18 6 1 7 9 9 9 10 13
25 24 22 20 19 16 15 11 5 4 5 6 3 3 3 3 1 2 4 1 2 3 3 5 2 2 5 5 4 5 8 9 4 1 2 8 8 5 2 3 6 7 8 9 11
25 23 21 18 18 15 11 3 8 7 5 2 1 4 2 1 2 2 2 1 1 5 4 3 3 4 4 7 7 6 8 5 7 4 4 6 15 5 3 2 4 6 7 9 11
25 23 20 17 15 12 3 2 3 4 3 3 2 2 1 2 2 4 3 1 2 3 4 1 6 7 1 2 1 3 2 4 1 2 3 10 13 10 7 6 7 6 9 10 12
25 22 20 18 7 7 3 5 3 3 2 1 0 1 1 2 1 6 4 3 3 2 2 4 4 3 4 4 4 4 4 8 3 1 3 3 10 12 7 4 5 6 7 9 10
23 20 20 16 3 6 7 4 4 2 2 3 2 3 3 4 3 6 6 1 2 2 1 3 4 1 1 3 4 3 4 4 3 2 1 6 9 4 5 11 10 7 5 4 10
19 18 17 12 2 2 4 6 4 3 3 7 4 4 2 3 3 3 5 3 2 2 2 4 2 1 1 1 3 5 1 1 1 4 4 2 3 4 4 4 14 11 11 9 6
16 12 11 14 2 3 5 5 2 4 3 8 4 4 6 5 5 7 4 2 4 3 3 4 3 2 2 3 3 3 2 3 2 2 3 6 5 7 3 6 17 15 14 11 9
15 7 9 4 2 2 5 3 3 4 3 4 5 9 5 9 5 6 6 9 3 0 8 5 3 4 3 2 3 6 3 3 3 1 6 4 5 5 7 12 15 16 15 13 11
14 5 6 2 7 6 3 3 2 4 6 8 8 9 3 9 8 9 8 12 7 2 4 4 4 2 4 2 3 2 3 3 4 5 1 2 5 7 6 10 11 14 16 14 10
10 2 4 5 5 4 2 3 8 4 5 5 7 5 5 12 7 9 4 5 13 7 3 4 5 5 7 4 3 2 3 4 5 3 4 3 5 6 6 5 10 11 11 12 10
3 0 4 12 4 2 3 8 4 5 8 9 9 3 3 6 4 4 8 6 8 12 6 6 4 2 3 3 4 3 2 2 1 1 3 4 5 5 9 12 15 16 16 16 13
2 1 9 17 5 2 7 6 3 6 7 5 6 7 7 9 7 5 6 6 7 8 4 2 4 1 3 2 6 4 3 3 3 4 6 4 3 5 12 13 14 17 17 15 13
2 2 12 15 3 8 7 5 4 8 7 7 5 3 3 6 4 4 7 5 10 8 9 2 2 4 3 6 4 1 1 1 4 3 4 1 5 6 8 9 12 13 14 14 12
3 4 13 9 8 4 6 4 5 10 8 7 4 5 5 7 4 3 4 6 9 7 4 3 3 3 4 2 3 3 4 3 4 4 0 4 5 5 7 8 11 13 13 14 13
4 2 7 8 7 6 4 5 7 9 9 6 6 6 5 4 0 4 2 1 11 8 5 4 1 2 4 4 4 3 6 3 2 2 3 4 6 3 7 10 12 13 13 12 11
2 2 5 6 3 4 3 6 3 5 5 3 5 3 2 5 4 3 3 2 6 10 10 1 3 4 3 4 2 3 8 5 3 2 3 3 6 5 8 10 12 15 13 10 6
6 3 2 5 7 8 3 2 4 4 4 9 2 6 4 4 2 3 6 5 0 11 5 4 3 4 1 7 9 7 6 7 4 2 3 3 3 5 8 8 9 10 10 8 10
4 3 2 2 2 2 5 3 3 2 3 3 3 4 3 2 1 3 4 5 5 7 5 4 3 2 8 6 7 8 7 4 4 3 1 1 4 3 5 6 9 11 10 7 7
3 2 3 3 2 1 2 0 1 2 2 1 2 2 1 3 6 7 6 2 4 5 6 4 1 2 4 2 6 5 3 4 3 2 3 3 3 6 9 11 11 15 10 8 6
Wind_Direction
344 350 345 345 347 338 338 335 331 324 317 313 307 304 309 322 318 194 193 106 255 270 82 300 185 158 174 191 208 221 234 237 222 226 213 150 208 162 85 139 168 132 13 82 145
347 346 341 341 340 336 336 329 328 320 314 306 293 292 324 331 286 223 117 250 329 51 236 223 186 164 181 195 192 211 230 247 255 233 240 174 199 182 192 172 194 173 101 131 151
347 344 342 339 336 334 334 327 326 316 311 308 287 275 281 274 247 104 234 344 310 120 218 199 169 192 198 185 192 208 245 248 226 244 271 184 199 175 212 214 202 203 161 158 163
342 340 337 333 333 331 329 324 321 315 314 317 300 265 64 212 259 142 325 342 12 140 156 169 187 190 207 202 199 234 251 248 125 88 226 206 141 201 217 30 358 135 163 163 172
341 338 335 331 328 326 321 319 316 314 314 312 290 205 194 205 144 130 345 340 133 164 197 190 196 198 204 199 186 231 229 201 199 214 245 282 224 247 231 176 74 136 158 170 175
341 339 334 331 329 323 321 317 311 310 307 305 228 153 224 227 90 91 344 149 102 170 165 187 225 220 207 192 216 83 222 220 183 202 281 255 248 224 140 150 133 158 170 174 178
342 338 335 332 329 328 326 321 314 301 296 264 187 209 234 48 130 156 6 117 88 165 150 168 158 214 164 165 126 118 200 234 212 185 210 280 240 230 111 165 166 175 174 175 179
343 341 339 338 335 333 330 323 309 289 254 193 164 216 347 80 237 47 34 123 81 133 106 127 150 110 329 118 120 196 222 226 128 208 130 220 254 89 91 180 184 179 180 180 180
345 344 341 340 340 339 338 334 341 139 149 145 178 252 119 140 232 9 2 51 111 114 106 109 135 103 151 188 193 208 247 224 177 229 283 223 257 45 60 215 198 194 188 190 178
346 344 342 342 341 343 349 47 74 102 95 127 145 227 134 23 345 340 13 352 151 142 145 171 145 180 172 195 227 214 219 227 232 133 214 230 254 257 83 188 228 216 201 194 192
345 342 343 346 344 354 14 141 187 140 61 24 18 3 33 357 241 28 1 192 158 209 206 112 218 217 208 220 102 119 172 241 136 92 255 238 268 273 266 244 243 224 217 205 201
344 343 346 347 27 32 46 64 51 351 104 19 359 37 19 341 218 27 323 222 217 203 164 192 236 83 105 134 169 196 226 233 132 116 272 274 274 277 318 336 338 295 238 224 201
341 343 348 349 87 44 62 49 324 250 234 66 37 19 352 334 42 6 351 5 34 146 340 277 65 84 198 165 197 194 237 209 294 175 210 288 252 186 75 61 51 38 6 264 223
342 346 355 347 119 6 56 342 315 281 197 16 24 50 330 334 78 355 11 343 105 83 73 59 43 219 172 113 313 227 111 169 216 234 245 296 227 116 45 104 36 9 360 349 297
348 352 15 27 52 41 340 325 282 242 242 3 22 330 343 33 333 47 17 307 41 67 253 77 30 30 121 28 325 53 102 94 77 159 284 183 239 87 28 347 352 350 342 333 313
345 357 357 37 70 57 319 292 230 226 86 18 14 358 17 26 29 349 28 33 32 99 63 75 58 32 26 34 38 134 124 96 120 184 230 123 255 82 17 333 331 342 341 336 321
350 45 41 348 330 338 310 220 226 36 356 6 339 339 15 9 24 10 61 51 22 322 52 124 51 40 3 197 127 228 203 190 198 195 293 60 217 55 357 359 343 336 337 337 336
346 1 56 51 323 297 227 226 60 13 6 356 331 336 58 7 34 21 72 50 31 360 22 351 155 6 353 12 10 76 298 304 263 216 95 144 204 95 352 358 9 4 0 3 7
1 101 24 355 342 252 258 53 34 3 334 329 314 14 43 21 328 58 53 33 16 14 10 345 117 128 1 354 319 122 213 21 76 86 258 103 108 172 21 16 15 12 11 6 9
38 77 20 346 337 308 58 90 89 15 325 311 346 16 2 9 6 32 27 24 351 5 350 41 293 44 124 228 59 339 89 218 181 245 229 108 120 34 2 357 358 6 5 5 5
32 83 350 348 319 49 61 64 59 18 9 9 13 14 1 3 347 46 19 95 6 330 314 278 271 126 213 26 10 92 143 31 304 280 302 252 103 360 350 353 352 355 355 357 7
5 52 342 335 49 43 50 18 6 7 22 46 28 15 356 11 27 91 64 18 351 341 352 12 334 281 41 72 307 328 21 324 277 108 350 310 105 6 356 359 360 356 353 351 2
53 24 354 354 58 61 80 66 43 26 26 16 18 15 18 18 245 45 78 57 9 2 10 351 75 237 146 176 178 63 24 318 278 245 286 301 116 39 22 17 7 5 355 343 353
30 21 39 51 47 62 81 39 53 39 51 47 20 31 19 21 26 39 32 42 350 4 11 355 54 360 348 35 349 65 20 359 314 264 8 36 133 39 21 11 3 359 354 345 35
15 65 358 17 44 59 78 20 21 27 32 26 41 34 21 16 3 20 9 342 41 7 21 38 78 14 51 86 99 100 61 52 72 7 299 50 96 29 8 350 340 336 343 359 17
45 2 8 56 69 74 25 49 23 18 3 28 32 348 4 44 267 278 353 26 25 336 25 355 112 141 88 109 99 84 56 73 98 28 154 271 188 19 326 332 340 333 327 308 353
44 74 276 10 77 153 64 353 1 307 171 50 340 298 284 325 297 275 257 260 326 348 357 12 39 233 151 244 269 225 46 45 311 275 267 297 62 321 331 336 330 314 314 285 310